Voltar ao catálogo

SL-12 R/B(2)

AtivoUNKNOWN
NORAD 27473·ROCKET BODY·🇷🇺 Russia

Lançado Jul 25, 2002 de Baikonur Cosmodrome

Loading…

Próximas Passagens (próximas 24 horas)

TLE

AtualizadoSource: Space-Track

Época: Sep 14, 2026, 10:44 UTC

1 27473U 02037D   26257.44750926 -.00000065  00000-0 -30581-4 0  9998
2 27473  63.4164  57.6442 0635264 348.4943  36.4623 12.01428240 59224

Acompanhe SL-12 R/B(2) em tempo real com AllMySat

Download on the App Store